Time,TemperatureF,DewpointF,PressureIn,WindDirection,WindDirectionDegrees,WindSpeedMPH,WindSpeedGustMPH,Humidity,HourlyPrecipIn,Conditions,Clouds,dailyrainin,SoftwareType,DateUTC
2013-05-08 00:01:00,49.6,46.5,29.94,South,169,0.0,0.0,89,0.00,,,0.00,Weather View 32 v70,2013-05-08 04:01:00,
2013-05-08 00:02:00,49.6,46.2,29.94,South,169,0.0,0.0,88,0.00,,,0.00,Weather View 32 v70,2013-05-08 04:02:00,
2013-05-08 00:07:00,49.4,46.3,29.94,SSE,149,0.0,0.0,89,0.00,,,0.00,Weather View 32 v70,2013-05-08 04:07:00,
2013-05-08 00:12:00,49.3,46.5,29.94,SSE,150,0.0,0.0,90,0.00,,,0.00,Weather View 32 v70,2013-05-08 04:12:00,
2013-05-08 00:17:00,49.2,46.4,29.94,SSE,150,0.0,0.0,90,0.00,,,0.00,Weather View 32 v70,2013-05-08 04:17:00,
2013-05-08 00:22:00,49.2,46.4,29.94,SSE,150,0.0,0.0,90,0.00,,,0.00,Weather View 32 v70,2013-05-08 04:22:00,
2013-05-08 00:27:00,49.1,46.6,29.94,SSE,150,0.0,0.0,91,0.00,,,0.00,Weather View 32 v70,2013-05-08 04:27:00,
2013-05-08 00:32:00,49.0,46.5,29.94,SSE,149,0.0,0.0,91,0.00,,,0.00,Weather View 32 v70,2013-05-08 04:32:00,
2013-05-08 00:37:00,48.9,46.7,29.94,SSE,151,0.0,0.0,92,0.00,,,0.00,Weather View 32 v70,2013-05-08 04:37:00,
2013-05-08 00:42:00,48.9,46.7,29.94,SSE,166,0.0,0.0,92,0.00,,,0.00,Weather View 32 v70,2013-05-08 04:42:00,
2013-05-08 00:47:00,48.8,46.6,29.94,SSE,166,0.0,0.0,92,0.00,,,0.00,Weather View 32 v70,2013-05-08 04:47:00,
2013-05-08 00:52:00,48.8,46.6,29.94,SSE,166,0.0,0.0,92,0.00,,,0.00,Weather View 32 v70,2013-05-08 04:52:00,
2013-05-08 00:57:00,48.8,46.9,29.94,SSE,166,0.0,0.0,93,0.00,,,0.00,Weather View 32 v70,2013-05-08 04:57:00,
2013-05-08 01:02:00,48.9,47.0,29.94,SSE,166,0.0,0.0,93,0.00,,,0.00,Weather View 32 v70,2013-05-08 05:02:00,
2013-05-08 01:07:00,48.8,46.9,29.94,SSE,166,0.0,0.0,93,0.00,,,0.00,Weather View 32 v70,2013-05-08 05:07:00,
2013-05-08 01:12:00,48.8,46.9,29.93,SSE,166,0.0,0.0,93,0.00,,,0.00,Weather View 32 v70,2013-05-08 05:12:00,
2013-05-08 01:17:00,48.7,46.8,29.93,SSE,166,0.0,0.0,93,0.00,,,0.00,Weather View 32 v70,2013-05-08 05:17:00,
2013-05-08 01:22:00,48.6,46.7,29.93,SSE,167,0.0,0.0,93,0.00,,,0.00,Weather View 32 v70,2013-05-08 05:22:00,
2013-05-08 01:27:00,48.6,46.9,29.93,SSE,167,0.0,0.0,94,0.00,,,0.00,Weather View 32 v70,2013-05-08 05:27:00,
2013-05-08 01:32:00,48.6,46.9,29.93,SSE,167,0.0,0.0,94,0.00,,,0.00,Weather View 32 v70,2013-05-08 05:32:00,
2013-05-08 01:37:00,48.6,46.9,29.93,SSE,167,0.0,0.0,94,0.00,,,0.00,Weather View 32 v70,2013-05-08 05:37:00,
2013-05-08 01:42:00,48.6,47.2,29.93,SSE,167,0.0,0.0,95,0.00,,,0.00,Weather View 32 v70,2013-05-08 05:42:00,
2013-05-08 01:47:00,48.6,47.2,29.93,SSE,167,0.0,0.0,95,0.00,,,0.00,Weather View 32 v70,2013-05-08 05:47:00,
2013-05-08 01:52:00,48.5,47.1,29.92,SSE,168,0.0,0.0,95,0.00,,,0.00,Weather View 32 v70,2013-05-08 05:52:00,
2013-05-08 01:57:00,48.3,46.9,29.92,SSE,167,0.0,0.0,95,0.00,,,0.00,Weather View 32 v70,2013-05-08 05:57:00,
2013-05-08 02:02:00,48.2,47.1,29.92,SSE,166,0.0,0.0,96,0.00,,,0.00,Weather View 32 v70,2013-05-08 06:02:00,
2013-05-08 02:07:00,48.1,47.0,29.92,SSW,194,0.0,0.0,96,0.00,,,0.00,Weather View 32 v70,2013-05-08 06:07:00,
2013-05-08 02:12:00,48.0,46.9,29.92,South,173,0.0,0.0,96,0.00,,,0.00,Weather View 32 v70,2013-05-08 06:12:00,
2013-05-08 02:17:00,47.9,47.1,29.92,South,173,0.0,0.0,97,0.00,,,0.00,Weather View 32 v70,2013-05-08 06:17:00,
2013-05-08 02:22:00,47.9,47.1,29.91,South,173,0.0,0.0,97,0.00,,,0.00,Weather View 32 v70,2013-05-08 06:22:00,
2013-05-08 02:27:00,47.8,47.0,29.91,SSW,192,0.0,0.0,97,0.00,,,0.00,Weather View 32 v70,2013-05-08 06:27:00,
2013-05-08 02:32:00,47.8,47.0,29.91,SSE,163,0.0,0.0,97,0.00,,,0.00,Weather View 32 v70,2013-05-08 06:32:00,
2013-05-08 02:37:00,47.8,47.3,29.91,South,189,0.0,0.0,98,0.00,,,0.00,Weather View 32 v70,2013-05-08 06:37:00,
2013-05-08 02:42:00,47.7,47.2,29.91,SE,127,0.0,0.0,98,0.00,,,0.00,Weather View 32 v70,2013-05-08 06:42:00,
2013-05-08 02:47:00,47.7,47.2,29.91,SSE,158,0.0,0.0,98,0.00,,,0.00,Weather View 32 v70,2013-05-08 06:47:00,
2013-05-08 02:52:00,47.7,47.2,29.91,SE,135,0.0,0.0,98,0.00,,,0.00,Weather View 32 v70,2013-05-08 06:52:00,
2013-05-08 02:57:00,47.8,47.3,29.91,East,90,0.0,0.0,98,0.00,,,0.00,Weather View 32 v70,2013-05-08 06:57:00,
2013-05-08 03:02:00,47.9,47.6,29.90,East,90,0.0,0.0,99,0.00,,,0.00,Weather View 32 v70,2013-05-08 07:02:00,
2013-05-08 03:07:00,47.8,47.5,29.90,WNW,289,0.0,0.0,99,0.00,,,0.00,Weather View 32 v70,2013-05-08 07:07:00,
2013-05-08 03:12:00,47.7,47.4,29.90,SSE,162,0.0,0.0,99,0.00,,,0.00,Weather View 32 v70,2013-05-08 07:12:00,
2013-05-08 03:17:00,47.7,47.4,29.90,SSE,162,0.0,0.0,99,0.00,,,0.00,Weather View 32 v70,2013-05-08 07:17:00,
2013-05-08 03:22:00,47.6,47.3,29.90,East,93,0.0,0.0,99,0.00,,,0.00,Weather View 32 v70,2013-05-08 07:22:00,
2013-05-08 03:27:00,47.6,47.3,29.90,SW,236,0.0,0.0,99,0.00,,,0.00,Weather View 32 v70,2013-05-08 07:27:00,
2013-05-08 03:32:00,47.6,47.3,29.90,East,93,0.0,0.0,99,0.00,,,0.00,Weather View 32 v70,2013-05-08 07:32:00,
2013-05-08 03:37:00,47.5,47.5,29.90,West,271,0.0,0.0,100,0.00,,,0.00,Weather View 32 v70,2013-05-08 07:37:00,
2013-05-08 03:42:00,47.6,47.6,29.90,SSW,205,0.0,0.0,100,0.00,,,0.00,Weather View 32 v70,2013-05-08 07:42:00,
2013-05-08 03:47:00,47.6,47.6,29.90,SSW,204,0.0,0.0,100,0.00,,,0.00,Weather View 32 v70,2013-05-08 07:47:00,
2013-05-08 03:52:00,47.5,47.5,29.90,SSW,204,0.0,0.0,100,0.00,,,0.00,Weather View 32 v70,2013-05-08 07:52:00,
2013-05-08 03:57:00,47.4,47.4,29.91,East,100,0.0,0.0,100,0.00,,,0.00,Weather View 32 v70,2013-05-08 07:57:00,
2013-05-08 04:02:00,47.3,47.3,29.91,East,100,0.0,0.0,100,0.00,,,0.00,Weather View 32 v70,2013-05-08 08:02:00,
2013-05-08 04:07:00,47.3,47.3,29.91,East,100,0.0,0.0,100,0.00,,,0.00,Weather View 32 v70,2013-05-08 08:07:00,
2013-05-08 04:12:00,47.3,47.3,29.91,SSW,202,0.0,0.0,100,0.00,,,0.00,Weather View 32 v70,2013-05-08 08:12:00,
2013-05-08 04:17:00,47.3,47.3,29.91,SSW,197,0.0,0.0,100,0.00,,,0.00,Weather View 32 v70,2013-05-08 08:17:00,
2013-05-08 04:22:00,47.4,47.4,29.91,WSW,245,0.0,0.0,100,0.00,,,0.00,Weather View 32 v70,2013-05-08 08:22:00,
2013-05-08 04:27:00,47.4,47.4,29.91,West,267,0.0,0.0,100,0.00,,,0.00,Weather View 32 v70,2013-05-08 08:27:00,
2013-05-08 04:32:00,47.4,47.4,29.91,NE,38,0.0,0.0,100,0.00,,,0.00,Weather View 32 v70,2013-05-08 08:32:00,
2013-05-08 04:37:00,47.3,47.3,29.92,SSW,200,0.0,0.0,100,0.00,,,0.00,Weather View 32 v70,2013-05-08 08:37:00,
2013-05-08 04:42:00,47.3,47.3,29.92,East,82,0.0,0.0,100,0.00,,,0.00,Weather View 32 v70,2013-05-08 08:42:00,
2013-05-08 04:47:00,47.3,47.3,29.92,SSW,200,0.0,0.0,100,0.00,,,0.00,Weather View 32 v70,2013-05-08 08:47:00,
2013-05-08 04:52:00,47.3,47.3,29.92,SSW,200,0.0,0.0,100,0.00,,,0.00,Weather View 32 v70,2013-05-08 08:52:00,
2013-05-08 04:57:00,47.2,47.2,29.92,SSW,200,0.0,0.0,100,0.00,,,0.00,Weather View 32 v70,2013-05-08 08:57:00,
2013-05-08 05:02:00,47.2,47.2,29.92,SSW,200,0.0,0.0,100,0.00,,,0.00,Weather View 32 v70,2013-05-08 09:02:00,
2013-05-08 05:07:00,47.1,47.1,29.92,SSW,200,0.0,0.0,100,0.00,,,0.00,Weather View 32 v70,2013-05-08 09:07:00,
2013-05-08 05:12:00,47.0,47.0,29.92,SSW,200,0.0,0.0,100,0.00,,,0.00,Weather View 32 v70,2013-05-08 09:12:00,
2013-05-08 05:17:00,47.0,47.0,29.92,SSW,200,0.0,0.0,100,0.00,,,0.00,Weather View 32 v70,2013-05-08 09:17:00,
2013-05-08 05:22:00,47.0,47.0,29.92,ESE,123,0.0,0.0,100,0.00,,,0.00,Weather View 32 v70,2013-05-08 09:22:00,
2013-05-08 05:27:00,47.1,47.1,29.92,SE,124,0.0,0.0,100,0.00,,,0.00,Weather View 32 v70,2013-05-08 09:27:00,
2013-05-08 05:32:00,47.1,47.1,29.92,NE,56,0.0,0.0,100,0.00,,,0.00,Weather View 32 v70,2013-05-08 09:32:00,
2013-05-08 05:37:00,47.0,47.0,29.92,NE,56,0.0,0.0,100,0.00,,,0.00,Weather View 32 v70,2013-05-08 09:37:00,
2013-05-08 05:42:00,46.9,46.9,29.92,NE,56,0.0,0.0,100,0.00,,,0.00,Weather View 32 v70,2013-05-08 09:42:00,
2013-05-08 05:47:00,46.8,46.8,29.92,NE,56,0.0,0.0,100,0.00,,,0.00,Weather View 32 v70,2013-05-08 09:47:00,
2013-05-08 05:52:00,46.9,46.9,29.92,ENE,57,0.0,0.0,100,0.00,,,0.00,Weather View 32 v70,2013-05-08 09:52:00,
2013-05-08 05:57:00,46.8,46.8,29.93,ENE,58,0.0,0.0,100,0.00,,,0.00,Weather View 32 v70,2013-05-08 09:57:00,
2013-05-08 06:02:00,46.9,46.9,29.93,ENE,58,0.0,0.0,100,0.00,,,0.00,Weather View 32 v70,2013-05-08 10:02:00,
2013-05-08 06:07:00,46.9,46.9,29.93,ENE,58,0.0,0.0,100,0.00,,,0.00,Weather View 32 v70,2013-05-08 10:07:00,
2013-05-08 06:12:00,46.9,46.9,29.93,ENE,58,0.0,0.0,100,0.00,,,0.00,Weather View 32 v70,2013-05-08 10:12:00,
2013-05-08 06:17:00,47.0,47.0,29.93,ENE,58,0.0,0.0,100,0.00,,,0.00,Weather View 32 v70,2013-05-08 10:17:00,
2013-05-08 06:22:00,47.0,47.0,29.93,ENE,58,0.0,0.0,100,0.00,,,0.00,Weather View 32 v70,2013-05-08 10:22:00,
2013-05-08 06:27:00,47.1,47.1,29.94,ENE,58,0.0,0.0,100,0.00,,,0.00,Weather View 32 v70,2013-05-08 10:27:00,
2013-05-08 06:32:00,47.3,47.3,29.94,ENE,58,0.0,0.0,100,0.00,,,0.00,Weather View 32 v70,2013-05-08 10:32:00,
2013-05-08 06:37:00,47.4,47.4,29.94,ENE,58,0.0,0.0,100,0.00,,,0.00,Weather View 32 v70,2013-05-08 10:37:00,
2013-05-08 06:42:00,47.6,47.6,29.94,ENE,58,0.0,0.0,100,0.00,,,0.00,Weather View 32 v70,2013-05-08 10:42:00,
2013-05-08 06:47:00,47.7,47.7,29.94,ENE,58,0.0,0.0,100,0.00,,,0.00,Weather View 32 v70,2013-05-08 10:47:00,
2013-05-08 06:52:00,47.9,47.9,29.94,East,91,0.0,0.0,100,0.00,,,0.00,Weather View 32 v70,2013-05-08 10:52:00,
2013-05-08 06:57:00,48.0,48.0,29.94,East,91,0.0,0.0,100,0.00,,,0.00,Weather View 32 v70,2013-05-08 10:57:00,
2013-05-08 07:02:00,48.2,48.2,29.94,East,91,0.0,0.0,100,0.00,,,0.00,Weather View 32 v70,2013-05-08 11:02:00,
2013-05-08 07:07:00,48.3,48.3,29.95,ENE,58,0.0,0.0,100,0.00,,,0.00,Weather View 32 v70,2013-05-08 11:07:00,
2013-05-08 07:12:00,48.2,48.2,29.95,ENE,58,0.0,0.0,100,0.00,,,0.00,Weather View 32 v70,2013-05-08 11:12:00,
2013-05-08 07:18:00,48.3,48.3,29.95,ENE,58,0.0,0.0,100,0.00,,,0.00,Weather View 32 v70,2013-05-08 11:18:00,
2013-05-08 07:23:00,48.3,48.3,29.96,ENE,58,0.0,0.0,100,0.00,,,0.00,Weather View 32 v70,2013-05-08 11:23:00,
2013-05-08 07:28:00,48.4,48.4,29.96,ENE,58,0.0,0.0,100,0.00,,,0.00,Weather View 32 v70,2013-05-08 11:28:00,
2013-05-08 07:33:00,48.5,48.5,29.96,ENE,58,0.0,0.0,100,0.00,,,0.00,Weather View 32 v70,2013-05-08 11:33:00,
2013-05-08 07:38:00,48.7,48.7,29.96,ENE,58,0.0,0.0,100,0.00,,,0.00,Weather View 32 v70,2013-05-08 11:38:00,
2013-05-08 07:43:00,49.0,49.0,29.96,ENE,59,0.0,0.0,100,0.00,,,0.00,Weather View 32 v70,2013-05-08 11:43:00,
2013-05-08 07:48:00,49.2,49.2,29.96,ENE,59,0.0,0.0,100,0.00,,,0.00,Weather View 32 v70,2013-05-08 11:48:00,
2013-05-08 07:53:00,49.3,49.3,29.96,ENE,59,0.0,0.0,100,0.00,,,0.00,Weather View 32 v70,2013-05-08 11:53:00,
2013-05-08 07:58:00,49.4,49.4,29.97,ENE,59,0.0,0.0,100,0.00,,,0.00,Weather View 32 v70,2013-05-08 11:58:00,
2013-05-08 08:03:00,49.5,49.5,29.97,ENE,59,0.0,0.0,100,0.00,,,0.00,Weather View 32 v70,2013-05-08 12:03:00,
2013-05-08 08:08:00,49.5,49.5,29.97,ENE,59,0.0,0.0,100,0.00,,,0.00,Weather View 32 v70,2013-05-08 12:08:00,
2013-05-08 08:13:00,49.7,49.7,29.97,ENE,70,0.0,0.0,100,0.00,,,0.00,Weather View 32 v70,2013-05-08 12:13:00,
2013-05-08 08:18:00,49.9,49.9,29.97,ENE,70,0.0,0.0,100,0.00,,,0.00,Weather View 32 v70,2013-05-08 12:18:00,
2013-05-08 08:23:00,50.0,50.0,29.97,ENE,70,0.0,0.0,100,0.00,,,0.00,Weather View 32 v70,2013-05-08 12:23:00,
2013-05-08 08:28:00,50.2,50.2,29.97,ENE,70,0.0,0.0,100,0.00,,,0.00,Weather View 32 v70,2013-05-08 12:28:00,
2013-05-08 08:33:00,50.5,50.5,29.98,ENE,70,0.0,0.0,100,0.00,,,0.00,Weather View 32 v70,2013-05-08 12:33:00,
2013-05-08 08:38:00,50.8,50.8,29.98,ENE,70,0.0,0.0,100,0.00,,,0.00,Weather View 32 v70,2013-05-08 12:38:00,
2013-05-08 08:43:00,51.2,51.2,29.98,ENE,70,0.0,0.0,100,0.00,,,0.00,Weather View 32 v70,2013-05-08 12:43:00,
2013-05-08 08:48:00,51.5,51.5,29.98,ENE,70,0.0,0.0,100,0.00,,,0.00,Weather View 32 v70,2013-05-08 12:48:00,
2013-05-08 08:53:00,52.0,52.0,29.98,ENE,70,0.0,0.0,100,0.00,,,0.00,Weather View 32 v70,2013-05-08 12:53:00,
2013-05-08 08:58:00,52.4,52.4,29.98,NNE,19,0.0,0.0,100,0.00,,,0.00,Weather View 32 v70,2013-05-08 12:58:00,
2013-05-08 09:03:00,52.7,52.7,29.98,WNW,301,0.0,0.0,100,0.00,,,0.00,Weather View 32 v70,2013-05-08 13:03:00,
2013-05-08 09:08:00,53.0,53.0,29.98,NNW,333,0.0,0.0,100,0.00,,,0.00,Weather View 32 v70,2013-05-08 13:08:00,
2013-05-08 09:13:00,53.5,53.2,29.98,South,182,0.0,0.0,99,0.00,,,0.00,Weather View 32 v70,2013-05-08 13:13:00,
2013-05-08 09:18:00,54.0,53.2,29.99,NNW,333,0.0,0.0,97,0.00,,,0.00,Weather View 32 v70,2013-05-08 13:18:00,
2013-05-08 09:23:00,54.1,53.0,29.99,NW,324,0.0,0.0,96,0.00,,,0.00,Weather View 32 v70,2013-05-08 13:23:00,
2013-05-08 09:28:00,54.4,53.0,29.99,SSW,197,0.0,3.0,95,0.00,,,0.00,Weather View 32 v70,2013-05-08 13:28:00,
2013-05-08 09:33:00,54.7,53.0,29.99,NNE,23,0.0,6.0,94,0.00,,,0.00,Weather View 32 v70,2013-05-08 13:33:00,
2013-05-08 09:38:00,55.0,53.0,29.98,North,350,5.0,6.0,93,0.00,,,0.00,Weather View 32 v70,2013-05-08 13:38:00,
2013-05-08 09:43:00,55.4,53.4,29.98,North,8,0.0,6.0,93,0.00,,,0.00,Weather View 32 v70,2013-05-08 13:43:00,
2013-05-08 09:48:00,55.8,53.5,29.98,WSW,246,1.0,6.0,92,0.00,,,0.00,Weather View 32 v70,2013-05-08 13:48:00,
2013-05-08 09:53:00,56.2,53.6,29.98,NNE,13,0.0,6.0,91,0.00,,,0.00,Weather View 32 v70,2013-05-08 13:53:00,
2013-05-08 09:58:00,56.7,53.5,29.98,WSW,237,0.0,6.0,89,0.00,,,0.00,Weather View 32 v70,2013-05-08 13:58:00,
2013-05-08 10:03:00,57.1,53.6,29.99,North,354,0.0,6.0,88,0.00,,,0.00,Weather View 32 v70,2013-05-08 14:03:00,
2013-05-08 10:08:00,57.4,53.6,29.99,NNW,338,3.0,6.0,87,0.00,,,0.00,Weather View 32 v70,2013-05-08 14:08:00,
2013-05-08 10:13:00,57.7,53.8,29.99,NNE,22,0.0,7.0,87,0.00,,,0.00,Weather View 32 v70,2013-05-08 14:13:00,
2013-05-08 10:18:00,57.9,53.4,29.99,NW,318,0.0,7.0,85,0.00,,,0.00,Weather View 32 v70,2013-05-08 14:18:00,
2013-05-08 10:23:00,58.1,53.6,29.99,NNW,347,0.0,7.0,85,0.00,,,0.00,Weather View 32 v70,2013-05-08 14:23:00,
2013-05-08 10:28:00,58.3,53.5,29.99,NNE,32,2.0,7.0,84,0.00,,,0.00,Weather View 32 v70,2013-05-08 14:28:00,
2013-05-08 10:33:00,58.9,54.4,29.99,NE,54,0.0,7.0,85,0.00,,,0.00,Weather View 32 v70,2013-05-08 14:33:00,
2013-05-08 10:38:00,58.8,53.3,29.99,East,83,0.0,7.0,82,0.00,,,0.00,Weather View 32 v70,2013-05-08 14:38:00,
2013-05-08 10:43:00,59.1,53.3,29.99,WNW,291,2.0,7.0,81,0.00,,,0.00,Weather View 32 v70,2013-05-08 14:43:00,
2013-05-08 10:48:00,59.3,53.1,29.99,NNW,342,3.0,7.0,80,0.00,,,0.00,Weather View 32 v70,2013-05-08 14:48:00,
2013-05-08 10:53:00,59.6,53.4,29.99,North,7,0.0,7.0,80,0.00,,,0.00,Weather View 32 v70,2013-05-08 14:53:00,
2013-05-08 10:58:00,59.9,53.0,29.99,NW,309,1.0,8.0,78,0.00,,,0.00,Weather View 32 v70,2013-05-08 14:58:00,
2013-05-08 11:03:00,60.0,52.8,29.99,North,353,3.0,8.0,77,0.00,,,0.00,Weather View 32 v70,2013-05-08 15:03:00,
2013-05-08 11:08:00,60.7,53.8,30.00,SSW,206,0.0,8.0,78,0.00,,,0.00,Weather View 32 v70,2013-05-08 15:08:00,
2013-05-08 11:13:00,61.4,53.4,29.99,SW,226,1.0,8.0,75,0.00,,,0.00,Weather View 32 v70,2013-05-08 15:13:00,
2013-05-08 11:18:00,62.0,53.2,30.00,SE,139,0.0,8.0,73,0.00,,,0.00,Weather View 32 v70,2013-05-08 15:18:00,
2013-05-08 11:23:00,62.4,53.2,29.99,West,278,0.0,8.0,72,0.00,,,0.00,Weather View 32 v70,2013-05-08 15:23:00,
2013-05-08 11:28:00,62.3,53.1,30.00,North,352,4.0,8.0,72,0.00,,,0.00,Weather View 32 v70,2013-05-08 15:28:00,
2013-05-08 11:33:00,62.0,52.5,30.00,NNW,339,6.0,8.0,71,0.00,,,0.00,Weather View 32 v70,2013-05-08 15:33:00,
2013-05-08 11:38:00,62.1,52.9,30.00,North,357,6.0,8.0,72,0.00,,,0.00,Weather View 32 v70,2013-05-08 15:38:00,
2013-05-08 11:43:00,62.2,53.0,30.00,South,182,0.0,8.0,72,0.00,,,0.00,Weather View 32 v70,2013-05-08 15:43:00,
2013-05-08 11:49:00,62.5,53.7,30.00,East,92,0.0,8.0,73,0.00,,,0.00,Weather View 32 v70,2013-05-08 15:49:00,
2013-05-08 11:54:00,62.5,52.9,30.00,SW,215,2.0,8.0,71,0.00,,,0.00,Weather View 32 v70,2013-05-08 15:54:00,
2013-05-08 11:59:00,62.5,52.6,30.00,WSW,253,0.0,7.0,70,0.00,,,0.00,Weather View 32 v70,2013-05-08 15:59:00,
2013-05-08 12:04:00,62.3,52.8,30.00,NNW,332,2.0,7.0,71,0.00,,,0.00,Weather View 32 v70,2013-05-08 16:04:00,
2013-05-08 12:09:00,62.5,52.9,30.00,SE,136,7.0,8.0,71,0.00,,,0.00,Weather View 32 v70,2013-05-08 16:09:00,
2013-05-08 12:14:00,62.4,52.1,30.00,WSW,245,1.0,9.0,69,0.00,,,0.00,Weather View 32 v70,2013-05-08 16:14:00,
2013-05-08 12:19:00,62.8,52.8,30.00,East,84,0.0,9.0,70,0.00,,,0.00,Weather View 32 v70,2013-05-08 16:19:00,
2013-05-08 12:24:00,62.6,52.3,30.00,NNE,33,3.0,9.0,69,0.00,,,0.00,Weather View 32 v70,2013-05-08 16:24:00,
2013-05-08 12:29:00,62.0,52.1,30.00,NNW,336,3.0,9.0,70,0.00,,,0.00,Weather View 32 v70,2013-05-08 16:29:00,
2013-05-08 12:34:00,62.0,52.1,30.00,WNW,288,3.0,9.0,70,0.00,,,0.00,Weather View 32 v70,2013-05-08 16:34:00,
2013-05-08 12:39:00,62.1,52.2,30.00,SSW,197,0.0,9.0,70,0.00,,,0.00,Weather View 32 v70,2013-05-08 16:39:00,
2013-05-08 12:44:00,62.3,52.8,30.00,WNW,296,0.0,9.0,71,0.00,,,0.00,Weather View 32 v70,2013-05-08 16:44:00,
2013-05-08 12:49:00,62.4,53.2,30.00,NW,310,0.0,9.0,72,0.00,,,0.00,Weather View 32 v70,2013-05-08 16:49:00,
2013-05-08 12:54:00,62.3,52.4,30.00,SW,214,0.0,9.0,70,0.00,,,0.00,Weather View 32 v70,2013-05-08 16:54:00,
2013-05-08 12:59:00,62.2,53.0,30.00,NW,311,0.0,9.0,72,0.00,,,0.00,Weather View 32 v70,2013-05-08 16:59:00,
2013-05-08 13:04:00,62.0,52.8,30.00,SW,218,0.0,9.0,72,0.00,,,0.00,Weather View 32 v70,2013-05-08 17:04:00,
2013-05-08 13:09:00,61.8,53.8,30.00,WNW,297,0.0,9.0,75,0.00,,,0.00,Weather View 32 v70,2013-05-08 17:09:00,
2013-05-08 13:14:00,61.8,53.4,30.00,South,171,0.0,9.0,74,0.00,,,0.00,Weather View 32 v70,2013-05-08 17:14:00,
2013-05-08 13:19:00,61.8,53.0,30.00,NNE,28,4.0,9.0,73,0.00,,,0.00,Weather View 32 v70,2013-05-08 17:19:00,
2013-05-08 13:24:00,62.1,52.9,30.00,SSW,206,0.0,9.0,72,0.00,,,0.00,Weather View 32 v70,2013-05-08 17:24:00,
2013-05-08 13:29:00,62.1,52.6,30.00,NW,322,3.0,7.0,71,0.00,,,0.00,Weather View 32 v70,2013-05-08 17:29:00,
2013-05-08 13:34:00,62.3,52.8,30.00,North,350,0.0,7.0,71,0.00,,,0.00,Weather View 32 v70,2013-05-08 17:34:00,
2013-05-08 13:39:00,62.4,52.5,30.00,WNW,285,2.0,6.0,70,0.00,,,0.00,Weather View 32 v70,2013-05-08 17:39:00,
2013-05-08 13:44:00,62.2,52.3,30.00,NW,307,2.0,7.0,70,0.00,,,0.00,Weather View 32 v70,2013-05-08 17:44:00,
2013-05-08 13:49:00,61.9,52.0,30.00,NNW,347,0.0,7.0,70,0.00,,,0.00,Weather View 32 v70,2013-05-08 17:49:00,
2013-05-08 13:54:00,61.7,52.2,30.00,NW,321,0.0,7.0,71,0.00,,,0.00,Weather View 32 v70,2013-05-08 17:54:00,
2013-05-08 13:59:00,61.6,52.1,30.00,WNW,286,0.0,7.0,71,0.00,,,0.00,Weather View 32 v70,2013-05-08 17:59:00,
2013-05-08 14:04:00,61.7,52.2,30.00,WNW,294,0.0,7.0,71,0.00,,,0.00,Weather View 32 v70,2013-05-08 18:04:00,
2013-05-08 14:09:00,62.1,52.2,30.00,WSW,246,0.0,7.0,70,0.00,,,0.00,Weather View 32 v70,2013-05-08 18:09:00,
2013-05-08 14:14:00,62.5,53.3,30.00,NNE,15,0.0,7.0,72,0.00,,,0.00,Weather View 32 v70,2013-05-08 18:14:00,
2013-05-08 14:19:00,62.9,52.9,30.00,NW,324,2.0,7.0,70,0.00,,,0.00,Weather View 32 v70,2013-05-08 18:19:00,
2013-05-08 14:24:00,63.0,52.6,30.00,South,187,1.0,7.0,69,0.00,,,0.00,Weather View 32 v70,2013-05-08 18:24:00,
2013-05-08 14:29:00,63.2,52.8,30.00,East,99,0.0,7.0,69,0.00,,,0.00,Weather View 32 v70,2013-05-08 18:29:00,
2013-05-08 14:34:00,63.3,52.9,30.00,SSW,213,0.0,7.0,69,0.00,,,0.00,Weather View 32 v70,2013-05-08 18:34:00,
2013-05-08 14:39:00,63.1,53.1,30.00,SSE,166,0.0,7.0,70,0.00,,,0.00,Weather View 32 v70,2013-05-08 18:39:00,
2013-05-08 14:44:00,63.0,53.0,30.00,SW,233,1.0,5.0,70,0.00,,,0.00,Weather View 32 v70,2013-05-08 18:44:00,
2013-05-08 14:49:00,62.8,52.5,30.00,North,356,1.0,6.0,69,0.00,,,0.00,Weather View 32 v70,2013-05-08 18:49:00,
2013-05-08 14:54:00,62.6,52.7,30.00,West,273,1.0,6.0,70,0.00,,,0.00,Weather View 32 v70,2013-05-08 18:54:00,
2013-05-08 14:59:00,62.6,53.4,30.00,SE,133,0.0,6.0,72,0.00,,,0.00,Weather View 32 v70,2013-05-08 18:59:00,
2013-05-08 15:04:00,62.5,52.6,30.01,West,259,0.0,6.0,70,0.00,,,0.00,Weather View 32 v70,2013-05-08 19:04:00,
2013-05-08 15:09:00,62.3,52.8,30.01,West,264,0.0,6.0,71,0.00,,,0.00,Weather View 32 v70,2013-05-08 19:09:00,
2013-05-08 15:15:00,62.1,52.6,30.00,SSW,194,2.0,6.0,71,0.00,,,0.00,Weather View 32 v70,2013-05-08 19:15:00,
2013-05-08 15:20:00,62.1,52.9,30.00,SSW,207,0.0,6.0,72,0.00,,,0.00,Weather View 32 v70,2013-05-08 19:20:00,
2013-05-08 15:25:00,62.1,53.3,30.00,NNE,26,0.0,6.0,73,0.00,,,0.00,Weather View 32 v70,2013-05-08 19:25:00,
2013-05-08 15:30:00,62.0,52.5,30.01,NNW,331,1.0,6.0,71,0.00,,,0.00,Weather View 32 v70,2013-05-08 19:30:00,
2013-05-08 15:35:00,61.8,52.3,30.00,NW,304,1.0,6.0,71,0.00,,,0.00,Weather View 32 v70,2013-05-08 19:35:00,
2013-05-08 15:40:00,61.5,52.4,30.00,WNW,298,2.0,6.0,72,0.00,,,0.00,Weather View 32 v70,2013-05-08 19:40:00,
2013-05-08 15:45:00,61.6,52.5,30.00,WNW,287,0.0,6.0,72,0.00,,,0.00,Weather View 32 v70,2013-05-08 19:45:00,
2013-05-08 15:50:00,61.8,52.7,30.00,ENE,60,1.0,5.0,72,0.00,,,0.00,Weather View 32 v70,2013-05-08 19:50:00,
2013-05-08 15:55:00,61.9,53.1,30.00,NNW,348,2.0,5.0,73,0.00,,,0.00,Weather View 32 v70,2013-05-08 19:55:00,
2013-05-08 16:00:00,61.9,52.8,30.00,NNW,346,0.0,5.0,72,0.00,,,0.00,Weather View 32 v70,2013-05-08 20:00:00,
2013-05-08 16:05:00,61.8,53.4,30.00,North,356,0.0,5.0,74,0.00,,,0.00,Weather View 32 v70,2013-05-08 20:05:00,
2013-05-08 16:10:00,61.8,53.4,30.00,NNW,341,0.0,5.0,74,0.00,,,0.00,Weather View 32 v70,2013-05-08 20:10:00,
2013-05-08 16:15:00,61.8,53.4,30.00,NNW,341,0.0,5.0,74,0.00,,,0.00,Weather View 32 v70,2013-05-08 20:15:00,
2013-05-08 16:20:00,61.7,52.9,30.00,NNW,348,2.0,5.0,73,0.00,,,0.00,Weather View 32 v70,2013-05-08 20:20:00,
2013-05-08 16:25:00,61.4,53.4,30.01,East,88,1.0,5.0,75,0.00,,,0.00,Weather View 32 v70,2013-05-08 20:25:00,
2013-05-08 16:30:00,61.3,53.7,30.01,SSW,193,0.0,5.0,76,0.00,,,0.00,Weather View 32 v70,2013-05-08 20:30:00,
2013-05-08 16:35:00,61.1,53.5,30.00,SSW,196,0.0,5.0,76,0.00,,,0.00,Weather View 32 v70,2013-05-08 20:35:00,
2013-05-08 16:40:00,60.9,53.3,30.00,South,184,0.0,5.0,76,0.00,,,0.00,Weather View 32 v70,2013-05-08 20:40:00,
2013-05-08 16:45:00,60.8,53.5,30.00,South,183,0.0,5.0,77,0.00,,,0.00,Weather View 32 v70,2013-05-08 20:45:00,
2013-05-08 16:50:00,60.7,53.8,30.00,South,186,0.0,5.0,78,0.00,,,0.00,Weather View 32 v70,2013-05-08 20:50:00,
2013-05-08 16:55:00,60.7,54.1,30.00,WSW,240,0.0,5.0,79,0.00,,,0.00,Weather View 32 v70,2013-05-08 20:55:00,
2013-05-08 17:00:00,61.2,53.9,30.00,SW,221,2.0,5.0,77,0.00,,,0.00,Weather View 32 v70,2013-05-08 21:00:00,
2013-05-08 17:05:00,61.8,53.8,30.00,SSW,198,2.0,5.0,75,0.00,,,0.00,Weather View 32 v70,2013-05-08 21:05:00,
2013-05-08 17:10:00,62.0,53.6,30.00,NNW,332,3.0,5.0,74,0.00,,,0.00,Weather View 32 v70,2013-05-08 21:10:00,
2013-05-08 17:15:00,62.7,54.3,30.00,NE,56,4.0,5.0,74,0.00,,,0.00,Weather View 32 v70,2013-05-08 21:15:00,
2013-05-08 17:20:00,63.4,53.8,29.99,North,349,0.0,5.0,71,0.00,,,0.00,Weather View 32 v70,2013-05-08 21:20:00,
2013-05-08 17:25:00,63.9,53.9,29.99,SSW,212,2.0,5.0,70,0.00,,,0.00,Weather View 32 v70,2013-05-08 21:25:00,
2013-05-08 17:30:00,64.0,53.6,29.99,NE,37,3.0,5.0,69,0.00,,,0.00,Weather View 32 v70,2013-05-08 21:30:00,
2013-05-08 17:35:00,64.3,53.5,29.99,SSW,208,1.0,5.0,68,0.00,,,0.00,Weather View 32 v70,2013-05-08 21:35:00,
2013-05-08 17:40:00,64.5,53.3,29.99,NW,314,3.0,7.0,67,0.00,,,0.00,Weather View 32 v70,2013-05-08 21:40:00,
2013-05-08 17:45:00,64.9,53.6,29.99,SSW,211,1.0,7.0,67,0.00,,,0.00,Weather View 32 v70,2013-05-08 21:45:00,
2013-05-08 17:50:00,65.2,54.3,29.99,SSW,209,2.0,7.0,68,0.00,,,0.00,Weather View 32 v70,2013-05-08 21:50:00,
2013-05-08 17:55:00,65.4,53.7,29.99,WSW,248,3.0,7.0,66,0.00,,,0.00,Weather View 32 v70,2013-05-08 21:55:00,
2013-05-08 18:00:00,65.8,53.7,29.99,NE,51,0.0,7.0,65,0.00,,,0.00,Weather View 32 v70,2013-05-08 22:00:00,
2013-05-08 18:05:00,66.2,54.1,29.98,SE,126,2.0,7.0,65,0.00,,,0.00,Weather View 32 v70,2013-05-08 22:05:00,
2013-05-08 18:10:00,66.3,54.6,29.98,NNW,345,2.0,7.0,66,0.00,,,0.00,Weather View 32 v70,2013-05-08 22:10:00,
2013-05-08 18:15:00,66.0,53.9,29.99,South,174,1.0,7.0,65,0.00,,,0.00,Weather View 32 v70,2013-05-08 22:15:00,
2013-05-08 18:20:00,65.6,53.5,29.99,WSW,241,1.0,7.0,65,0.00,,,0.00,Weather View 32 v70,2013-05-08 22:20:00,
2013-05-08 18:25:00,65.2,53.5,29.99,ESE,105,1.0,7.0,66,0.00,,,0.00,Weather View 32 v70,2013-05-08 22:25:00,
2013-05-08 18:30:00,64.9,53.2,29.99,South,184,0.0,7.0,66,0.00,,,0.00,Weather View 32 v70,2013-05-08 22:30:00,
2013-05-08 18:35:00,64.9,53.2,29.99,NNW,338,1.0,7.0,66,0.00,,,0.00,Weather View 32 v70,2013-05-08 22:35:00,
2013-05-08 18:40:00,65.1,53.4,29.99,NE,49,1.0,7.0,66,0.00,,,0.00,Weather View 32 v70,2013-05-08 22:40:00,
2013-05-08 18:45:00,65.1,53.4,29.99,SE,131,0.0,7.0,66,0.00,,,0.00,Weather View 32 v70,2013-05-08 22:45:00,
2013-05-08 18:50:00,64.9,53.6,29.99,NNE,31,0.0,7.0,67,0.00,,,0.00,Weather View 32 v70,2013-05-08 22:50:00,
2013-05-08 18:55:00,64.7,53.5,29.99,NNW,346,0.0,7.0,67,0.00,,,0.00,Weather View 32 v70,2013-05-08 22:55:00,
2013-05-08 19:00:00,64.6,53.4,29.99,NW,314,0.0,7.0,67,0.00,,,0.00,Weather View 32 v70,2013-05-08 23:00:00,
2013-05-08 19:05:00,64.6,53.8,29.99,North,7,0.0,5.0,68,0.00,,,0.00,Weather View 32 v70,2013-05-08 23:05:00,
2013-05-08 19:10:00,64.5,53.7,29.99,North,350,0.0,5.0,68,0.00,,,0.00,Weather View 32 v70,2013-05-08 23:10:00,
2013-05-08 19:15:00,64.4,53.6,29.99,North,350,0.0,5.0,68,0.00,,,0.00,Weather View 32 v70,2013-05-08 23:15:00,
2013-05-08 19:20:00,64.2,54.6,29.99,North,350,0.0,5.0,71,0.00,,,0.00,Weather View 32 v70,2013-05-08 23:20:00,
2013-05-08 19:25:00,63.8,54.6,29.99,North,350,0.0,5.0,72,0.00,,,0.00,Weather View 32 v70,2013-05-08 23:25:00,
2013-05-08 19:30:00,63.5,54.7,29.99,North,350,0.0,5.0,73,0.00,,,0.00,Weather View 32 v70,2013-05-08 23:30:00,
2013-05-08 19:35:00,63.0,54.6,30.00,North,351,0.0,5.0,74,0.00,,,0.00,Weather View 32 v70,2013-05-08 23:35:00,
2013-05-08 19:40:00,62.4,54.3,29.99,North,349,0.0,5.0,75,0.00,,,0.00,Weather View 32 v70,2013-05-08 23:40:00,
2013-05-08 19:45:00,62.0,54.3,30.00,North,349,0.0,4.0,76,0.00,,,0.00,Weather View 32 v70,2013-05-08 23:45:00,
2013-05-08 19:50:00,61.5,54.2,30.00,North,349,0.0,4.0,77,0.00,,,0.00,Weather View 32 v70,2013-05-08 23:50:00,
2013-05-08 19:55:00,61.0,54.4,30.01,NW,322,0.0,0.0,79,0.00,,,0.00,Weather View 32 v70,2013-05-08 23:55:00,
2013-05-08 20:00:00,60.5,53.9,30.01,SSW,202,0.0,0.0,79,0.00,,,0.00,Weather View 32 v70,2013-05-09 00:00:00,
2013-05-08 20:05:00,60.1,54.2,30.01,SSW,202,0.0,0.0,81,0.00,,,0.00,Weather View 32 v70,2013-05-09 00:05:00,
2013-05-08 20:10:00,59.9,54.4,30.01,SSW,202,0.0,0.0,82,0.00,,,0.00,Weather View 32 v70,2013-05-09 00:10:00,
2013-05-08 20:15:00,59.7,54.5,30.01,SSW,199,0.0,0.0,83,0.00,,,0.00,Weather View 32 v70,2013-05-09 00:15:00,
2013-05-08 20:20:00,59.5,54.6,30.02,SE,143,0.0,0.0,84,0.00,,,0.00,Weather View 32 v70,2013-05-09 00:20:00,
2013-05-08 20:25:00,59.3,54.5,30.02,SSE,168,0.0,0.0,84,0.00,,,0.00,Weather View 32 v70,2013-05-09 00:25:00,
2013-05-08 20:30:00,59.3,54.5,30.02,SSE,168,0.0,0.0,84,0.00,,,0.00,Weather View 32 v70,2013-05-09 00:30:00,
2013-05-08 20:35:00,59.2,54.7,30.02,SSE,168,0.0,0.0,85,0.00,,,0.00,Weather View 32 v70,2013-05-09 00:35:00,
2013-05-08 20:40:00,59.1,54.6,30.03,South,169,0.0,0.0,85,0.00,,,0.00,Weather View 32 v70,2013-05-09 00:40:00,
2013-05-08 20:45:00,59.1,55.2,30.03,WNW,290,0.0,0.0,87,0.00,,,0.00,Weather View 32 v70,2013-05-09 00:45:00,
2013-05-08 20:50:00,58.9,55.3,30.03,WNW,290,0.0,0.0,88,0.00,,,0.00,Weather View 32 v70,2013-05-09 00:50:00,
2013-05-08 20:55:00,58.4,55.5,30.03,SSW,203,0.0,0.0,90,0.00,,,0.00,Weather View 32 v70,2013-05-09 00:55:00,
2013-05-08 21:00:00,58.1,55.5,30.03,SSW,199,0.0,0.0,91,0.00,,,0.00,Weather View 32 v70,2013-05-09 01:00:00,
2013-05-08 21:05:00,57.8,55.5,30.03,SSW,199,0.0,0.0,92,0.00,,,0.00,Weather View 32 v70,2013-05-09 01:05:00,
2013-05-08 21:10:00,57.6,55.6,30.03,SSW,198,0.0,0.0,93,0.00,,,0.00,Weather View 32 v70,2013-05-09 01:10:00,
2013-05-08 21:15:00,57.3,55.3,30.03,SSW,198,0.0,0.0,93,0.00,,,0.00,Weather View 32 v70,2013-05-09 01:15:00,
2013-05-08 21:20:00,56.9,55.2,30.03,SSW,199,0.0,0.0,94,0.00,,,0.00,Weather View 32 v70,2013-05-09 01:20:00,
2013-05-08 21:25:00,56.7,55.3,30.03,SSW,199,0.0,0.0,95,0.00,,,0.00,Weather View 32 v70,2013-05-09 01:25:00,
2013-05-08 21:30:00,56.4,55.3,30.04,SSW,199,0.0,0.0,96,0.00,,,0.00,Weather View 32 v70,2013-05-09 01:30:00,
2013-05-08 21:35:00,56.2,55.1,30.04,SSW,199,0.0,0.0,96,0.00,,,0.00,Weather View 32 v70,2013-05-09 01:35:00,
2013-05-08 21:40:00,55.9,55.1,30.04,SSW,199,0.0,0.0,97,0.00,,,0.00,Weather View 32 v70,2013-05-09 01:40:00,
2013-05-08 21:45:00,55.6,54.8,30.04,SSW,199,0.0,0.0,97,0.00,,,0.00,Weather View 32 v70,2013-05-09 01:45:00,
2013-05-08 21:50:00,55.4,54.8,30.05,SSW,198,0.0,0.0,98,0.00,,,0.00,Weather View 32 v70,2013-05-09 01:50:00,
2013-05-08 21:55:00,55.1,54.5,30.05,SSW,198,0.0,0.0,98,0.00,,,0.00,Weather View 32 v70,2013-05-09 01:55:00,
2013-05-08 22:00:00,54.9,54.3,30.05,South,191,0.0,0.0,98,0.00,,,0.00,Weather View 32 v70,2013-05-09 02:00:00,
2013-05-08 22:05:00,54.6,54.3,30.05,SSW,192,0.0,0.0,99,0.00,,,0.00,Weather View 32 v70,2013-05-09 02:05:00,
2013-05-08 22:11:00,54.4,54.1,30.05,SSW,192,0.0,0.0,99,0.00,,,0.00,Weather View 32 v70,2013-05-09 02:11:00,
2013-05-08 22:16:00,54.1,53.8,30.05,South,191,0.0,0.0,99,0.00,,,0.00,Weather View 32 v70,2013-05-09 02:16:00,
2013-05-08 22:21:00,53.9,53.6,30.06,South,189,0.0,0.0,99,0.00,,,0.00,Weather View 32 v70,2013-05-09 02:21:00,
2013-05-08 22:26:00,53.7,53.7,30.06,South,189,0.0,0.0,100,0.00,,,0.00,Weather View 32 v70,2013-05-09 02:26:00,
2013-05-08 22:31:00,53.5,53.5,30.06,South,189,0.0,0.0,100,0.00,,,0.00,Weather View 32 v70,2013-05-09 02:31:00,
2013-05-08 22:36:00,53.3,53.3,30.06,South,189,0.0,0.0,100,0.00,,,0.00,Weather View 32 v70,2013-05-09 02:36:00,
2013-05-08 22:41:00,53.0,53.0,30.06,South,184,0.0,0.0,100,0.00,,,0.00,Weather View 32 v70,2013-05-09 02:41:00,
2013-05-08 22:46:00,52.9,52.9,30.06,South,181,0.0,0.0,100,0.00,,,0.00,Weather View 32 v70,2013-05-09 02:46:00,
2013-05-08 22:51:00,52.7,52.7,30.07,South,181,0.0,0.0,100,0.00,,,0.00,Weather View 32 v70,2013-05-09 02:51:00,
2013-05-08 22:56:00,52.6,52.6,30.06,South,181,0.0,0.0,100,0.00,,,0.00,Weather View 32 v70,2013-05-09 02:56:00,
2013-05-08 23:01:00,52.5,52.5,30.07,South,181,0.0,0.0,100,0.00,,,0.00,Weather View 32 v70,2013-05-09 03:01:00,
2013-05-08 23:06:00,52.3,52.3,30.06,SSW,202,0.0,0.0,100,0.00,,,0.00,Weather View 32 v70,2013-05-09 03:06:00,
2013-05-08 23:11:00,52.3,52.3,30.06,SSW,196,0.0,0.0,100,0.00,,,0.00,Weather View 32 v70,2013-05-09 03:11:00,
2013-05-08 23:16:00,52.2,52.2,30.07,SSW,195,0.0,0.0,100,0.00,,,0.00,Weather View 32 v70,2013-05-09 03:16:00,
2013-05-08 23:21:00,52.1,52.1,30.06,SSW,195,0.0,0.0,100,0.00,,,0.00,Weather View 32 v70,2013-05-09 03:21:00,
2013-05-08 23:26:00,52.0,52.0,30.06,SSW,194,0.0,0.0,100,0.00,,,0.00,Weather View 32 v70,2013-05-09 03:26:00,
2013-05-08 23:31:00,52.0,52.0,30.06,SSW,192,0.0,0.0,100,0.00,,,0.00,Weather View 32 v70,2013-05-09 03:31:00,
2013-05-08 23:36:00,52.0,52.0,30.06,SSW,192,0.0,0.0,100,0.00,,,0.00,Weather View 32 v70,2013-05-09 03:36:00,
2013-05-08 23:41:00,51.9,51.9,30.06,South,191,0.0,0.0,100,0.00,,,0.00,Weather View 32 v70,2013-05-09 03:41:00,
2013-05-08 23:46:00,51.8,51.8,30.07,South,191,0.0,0.0,100,0.00,,,0.00,Weather View 32 v70,2013-05-09 03:46:00,
2013-05-08 23:51:00,51.8,51.8,30.07,South,178,0.0,0.0,100,0.00,,,0.00,Weather View 32 v70,2013-05-09 03:51:00,
2013-05-08 23:56:00,51.9,51.9,30.07,South,178,0.0,0.0,100,0.00,,,0.00,Weather View 32 v70,2013-05-09 03:56:00,